{"data":{"norad_id":54033,"epoch":"2026-05-25T03:51:09.136224Z","epoch_age_seconds":58289,"freshness":"FRESH","line1":"1 54033U 22131A   26145.16052241  .00000133  00000+0  00000+0 0  9998","line2":"2 54033   0.0352  97.6433 0001523  22.6200 203.2715  1.00272303 13240","mean_motion":1.00272303,"eccentricity":0.0001523,"inclination_deg":0.0352,"raan_deg":97.6433,"arg_perigee_deg":22.62,"mean_anomaly_deg":203.2715,"bstar":0,"rev_number":1324,"period_min":1436.089485249,"perigee_km":35780.02808105,"apogee_km":35792.871414174,"semimajor_km":42164.586747612,"source":"CELESTRAK","updated_at":"2026-05-25T13:38:14.111103Z"}}